Location: Winthrop
(48.4780°N, 120.1850°W)
Time: 16:34:50
(UTC-07:00)

Explorer 7 - Pass Details

Date: 02 February 2023
Orbit: 478 x 657 km, 50.3° (Epoch: 30 March)

Event Time Altitude Azimuth Distance (km) Brightness Sun altitude
Rises 11:14:06 0° 198° (SSW) 2,641 11.2 23.4°
Reaches altitude 10° 11:16:49 10° 178° (S) 1,792 11.2 23.6°
Maximum altitude 11:19:34 18° 136° (SE) 1,414 10.2 23.7°
Drops below altitude 10° 11:22:25 10° 94° (E) 1,880 9.8 23.8°
Sets 11:25:20 0° 75° (ENE) 2,824 10.4 23.9°
